Date,TemperatureHighF,TemperatureAvgF,TemperatureLowF,DewpointHighF,DewpointAvgF,DewpointLowF,HumidityHigh,HumidityAvg,HumidityLow,PressureMaxIn,PressureMinIn,WindSpeedMaxMPH,WindSpeedAvgMPH,GustSpeedMaxMPH,PrecipitationSumIn
2013-1-1,36.4,31.2,22.4,27.5,19.1,10.9,71,60,54,30.00,29.82,14,4,14,0.00
2013-1-2,29.7,23.9,17.0,16.8,12.7,8.8,70,62,52,30.15,29.97,13,3,14,0.01
2013-1-3,33.0,25.7,13.0,18.6,14.4,6.6,76,62,48,30.18,30.03,10,2,10,0.00
2013-1-4,37.7,31.7,25.3,24.6,20.9,17.6,75,64,51,30.05,29.92,16,4,16,0.00
2013-1-5,42.6,33.5,26.0,24.6,21.3,18.1,76,61,47,30.26,29.99,15,4,15,0.00
2013-1-6,46.0,35.3,28.9,31.8,25.5,22.0,84,68,49,30.20,29.95,10,2,10,0.00
2013-1-7,44.9,33.9,24.9,30.2,23.2,17.4,81,66,44,30.38,30.03,10,2,10,0.00
2013-1-8,48.5,34.0,22.4,32.3,24.9,17.7,87,70,49,30.41,30.31,9,2,9,0.00
2013-1-9,43.6,35.4,25.1,36.0,29.1,21.3,87,78,66,30.37,30.12,20,2,20,0.00
2013-1-10,48.9,39.4,31.9,31.8,24.9,20.6,70,57,39,30.53,30.20,16,4,16,0.00
2013-1-11,38.7,34.9,29.4,36.8,29.1,22.4,94,79,69,30.53,30.10,5,1,5,0.37
2013-1-12,44.2,41.8,38.6,42.6,40.3,36.7,95,94,93,30.16,30.06,4,1,4,0.05
2013-1-13,44.5,43.2,41.8,43.1,41.8,40.4,96,95,95,30.15,30.00,6,1,6,0.03
2013-1-14,53.3,45.8,35.4,51.5,39.9,31.0,97,81,54,30.29,29.87,12,2,12,0.11
2013-1-15,35.9,34.0,32.5,31.7,27.2,24.8,92,77,66,30.34,30.20,7,2,7,0.16
2013-1-16,32.5,30.6,29.1,30.3,28.4,26.0,93,92,77,30.23,29.79,6,1,6,0.00
2013-1-17,43.1,35.2,30.0,31.7,27.4,21.5,94,74,55,30.08,29.88,12,2,12,0.33
2013-1-18,30.1,24.7,19.9,21.5,11.2,5.4,71,57,38,30.45,30.00,10,3,10,0.01
2013-1-19,44.6,35.3,24.7,29.3,22.3,12.4,72,59,50,30.36,29.89,13,4,13,0.00
2013-1-20,51.0,39.0,27.3,34.5,22.9,10.1,79,54,27,30.02,29.67,23,5,23,0.00
2013-1-21,28.9,25.2,20.2,16.7,12.3,7.8,73,58,47,30.07,29.80,15,2,15,0.00
2013-1-22,23.5,17.5,10.3,15.5,1.0,-7.6,72,48,34,30.17,29.80,19,6,19,0.00
2013-1-23,18.6,11.0,6.6,-0.3,-4.4,-6.7,61,50,36,30.22,30.13,13,3,13,0.00
2013-1-24,22.2,13.9,5.8,4.7,-0.8,-3.9,74,53,35,30.35,30.10,20,5,20,0.00
2013-1-25,23.3,15.1,10.3,12.1,3.5,-1.5,78,60,44,30.37,30.03,16,3,16,0.00
2013-1-26,28.2,18.8,9.4,13.0,6.9,3.9,83,61,40,30.33,30.01,14,4,14,0.03
2013-1-27,33.7,23.2,15.4,14.3,9.3,5.5,72,56,39,30.49,30.33,10,3,10,0.00
2013-1-28,31.8,27.2,20.2,30.0,21.4,8.9,93,79,61,30.47,29.98,10,1,10,0.09
2013-1-29,48.5,37.0,31.6,42.8,33.8,29.2,94,89,76,30.14,29.97,5,1,5,0.24
2013-1-30,52.1,44.7,35.4,50.7,43.2,33.3,96,95,92,30.08,29.35,7,1,7,0.25
2013-1-31,58.0,41.8,26.9,56.5,27.9,9.7,97,60,37,29.75,29.03,26,9,26,1.16
2013-2-1,29.6,25.4,21.0,14.5,9.9,5.7,68,52,38,30.20,29.74,20,5,20,0.00
2013-2-2,28.4,21.9,15.9,16.5,9.9,3.8,80,61,37,30.26,30.04,15,2,15,0.00
2013-2-3,31.9,23.7,17.7,20.9,16.3,13.5,87,74,57,30.04,29.78,7,1,7,0.06
2013-2-4,30.2,24.7,20.1,18.2,10.7,6.9,79,56,41,29.95,29.78,15,4,15,0.01
2013-2-5,27.4,25.7,23.1,23.5,19.6,12.2,87,78,58,29.97,29.89,5,1,5,0.00
2013-2-6,38.1,30.1,22.2,27.4,18.0,3.8,91,63,38,30.33,29.89,13,3,13,0.02
2013-2-7,30.1,25.0,18.6,18.0,10.3,4.3,68,54,41,30.49,30.32,5,1,5,0.00
2013-2-8,30.9,28.9,24.7,28.1,25.2,18.0,93,86,68,30.33,29.64,11,4,11,0.00
2013-2-9,32.3,25.1,16.6,24.3,17.3,6.9,92,73,48,30.32,29.74,17,6,17,0.27
2013-2-10,37.5,23.3,8.4,19.4,10.2,2.7,80,59,35,30.46,30.31,7,1,7,0.36
2013-2-11,38.8,33.0,25.3,36.9,29.8,18.7,94,88,75,30.31,29.66,6,1,6,0.17
2013-2-12,44.5,37.7,32.1,33.8,27.5,22.6,94,68,49,29.95,29.70,15,4,15,0.02
2013-2-13,46.7,35.6,23.3,30.0,24.2,18.0,91,64,45,29.94,29.69,8,1,8,0.00
2013-2-14,47.2,35.3,25.3,34.4,27.0,22.7,92,73,44,29.98,29.71,7,1,7,0.06
2013-2-15,53.9,40.5,27.8,36.3,28.6,23.4,88,65,39,30.00,29.90,13,2,13,0.00
2013-2-16,37.1,32.3,28.2,30.8,24.1,14.5,90,72,56,29.97,29.74,9,3,9,0.05
2013-2-17,30.3,23.9,14.8,14.5,5.5,-0.8,57,46,33,29.96,29.64,28,8,28,0.01
2013-2-18,33.6,22.4,14.5,13.3,6.0,1.5,60,50,33,30.21,29.96,18,5,18,0.00
2013-2-19,43.3,33.5,21.3,37.4,25.6,12.7,93,74,52,30.18,29.66,19,2,19,0.30
2013-2-20,35.0,28.6,22.6,23.0,14.5,8.8,66,55,42,29.95,29.69,19,7,19,0.00
2013-2-21,32.1,25.5,22.0,14.2,12.1,10.1,69,57,46,30.28,29.94,23,6,23,0.00
2013-2-22,37.3,29.1,21.9,26.4,20.2,13.3,78,70,52,30.39,30.24,10,2,10,0.00
2013-2-23,37.4,34.1,31.2,35.6,31.6,25.8,94,91,76,30.26,29.80,8,1,8,0.13
2013-2-24,45.3,36.0,30.9,37.8,30.4,22.1,95,81,60,29.95,29.74,14,4,14,0.01
2013-2-25,44.6,35.7,27.8,29.8,25.5,21.2,79,66,52,30.23,29.95,10,2,10,0.00
2013-2-26,41.5,35.2,28.9,31.9,28.2,23.2,92,76,66,30.28,29.92,15,3,15,0.13
2013-2-27,43.3,38.8,33.6,41.6,36.9,31.5,95,93,90,29.92,29.50,17,4,17,0.99
2013-2-28,46.9,39.8,35.4,40.4,33.2,29.6,94,78,61,29.62,29.54,9,2,9,0.00
2013-3-1,43.6,36.6,32.5,31.5,28.4,23.6,84,72,55,29.77,29.59,11,4,11,0.00
2013-3-2,37.9,33.9,28.7,25.7,23.7,21.8,79,66,57,29.76,29.68,12,4,12,0.00
2013-3-3,41.5,30.4,26.4,22.1,18.7,15.9,76,62,43,29.75,29.65,15,5,15,0.00
2013-3-4,39.1,30.6,24.9,21.8,18.8,14.9,72,62,48,29.89,29.73,18,6,18,0.00
2013-3-5,47.2,36.3,28.5,27.8,23.5,19.7,72,60,44,30.02,29.88,13,3,13,0.00
2013-3-6,39.1,37.2,33.2,34.5,29.2,24.5,85,73,67,29.98,29.87,19,5,19,0.03
2013-3-7,36.3,32.1,30.5,30.0,29.0,26.1,93,89,67,30.07,29.93,11,2,11,0.04
2013-3-8,39.4,33.0,29.2,32.1,28.9,26.6,94,85,65,30.19,29.98,0,0,0,0.16
2013-3-9,53.0,41.7,32.1,26.6,22.1,17.1,69,48,27,30.31,30.17,9,2,9,0.00
2013-3-10,52.6,38.5,26.9,36.1,29.1,19.6,85,69,51,30.38,30.28,10,2,10,0.00
2013-3-11,53.2,44.2,36.3,45.0,38.7,31.3,90,81,63,30.31,30.08,11,3,11,0.00
2013-3-12,51.7,48.2,40.4,50.3,45.7,35.3,96,91,81,30.08,29.66,17,4,17,1.29
2013-3-13,47.9,39.4,31.4,35.6,28.9,21.8,89,68,38,29.87,29.78,14,3,14,0.00
2013-3-14,38.2,31.4,26.2,25.7,14.3,6.2,69,50,28,29.94,29.82,21,7,21,0.00
2013-3-15,41.6,34.5,26.2,28.9,18.9,8.2,66,53,40,29.94,29.69,13,5,13,0.00
2013-3-16,37.0,32.1,28.9,26.9,22.6,19.0,86,68,51,29.90,29.77,8,2,8,0.02
2013-3-17,36.9,30.7,25.3,26.6,17.8,12.3,85,60,41,30.29,29.89,11,3,11,0.02
2013-3-18,32.8,27.7,22.4,27.9,15.0,8.1,92,60,44,30.40,30.02,10,2,10,0.00
2013-3-19,42.4,34.3,30.0,35.5,30.9,24.7,94,88,72,30.02,29.69,11,3,11,0.57
2013-3-20,43.8,34.6,26.7,25.0,20.2,16.2,74,57,38,29.86,29.78,19,4,19,0.01
2013-3-21,38.6,32.0,28.2,23.9,16.6,11.6,77,54,38,29.83,29.62,13,3,13,0.00
2013-3-22,39.0,32.6,25.1,21.7,17.4,12.4,70,54,44,29.86,29.70,16,4,16,0.00
2013-3-23,45.2,35.4,29.4,23.6,19.9,17.2,64,54,38,29.92,29.80,18,6,18,0.00
2013-3-24,45.3,36.3,27.1,24.1,21.1,16.3,66,54,40,29.94,29.71,10,3,10,0.00
2013-3-25,41.7,37.5,34.5,30.6,26.3,23.0,75,64,49,29.71,29.46,13,3,13,0.00
2013-3-26,51.1,40.1,31.8,32.3,26.7,24.0,75,60,41,29.84,29.58,10,3,10,0.01
2013-3-27,51.9,41.4,33.0,30.6,25.5,21.6,69,54,33,29.91,29.80,17,4,17,0.00
2013-3-28,48.3,41.4,35.2,34.0,29.3,27.1,75,62,50,30.04,29.88,12,4,12,0.00
2013-3-29,53.4,44.5,37.5,31.3,28.5,25.5,69,55,38,30.07,29.95,12,4,12,0.00
2013-3-31,53.6,48.7,36.3,32.7,30.9,26.5,67,51,41,30.08,30.03,11,4,11,0.00
2013-4-2,44.5,36.0,28.3,16.2,12.4,8.7,59,39,27,30.07,29.91,21,6,21,0.00
2013-4-3,45.6,36.3,28.7,16.0,12.7,9.3,53,38,27,30.28,30.05,18,6,20,0.00
2013-4-4,56.2,40.3,25.5,29.4,19.9,11.6,62,45,24,30.36,30.06,13,3,13,0.00
2013-4-5,61.6,47.1,37.2,29.7,22.5,15.4,62,41,20,30.07,29.72,16,4,16,0.00
2013-4-6,57.2,41.2,32.1,22.6,13.9,6.5,57,35,15,30.29,29.98,13,4,13,0.00
2013-4-7,56.9,45.3,33.9,41.4,32.2,21.7,81,61,37,30.28,29.97,17,4,17,0.00
2013-4-8,74.4,55.4,40.0,45.2,40.3,35.8,88,61,27,30.07,29.96,12,2,12,0.00
2013-4-9,81.6,60.6,48.0,52.3,45.0,37.1,84,61,21,30.00,29.91,20,4,20,0.00
2013-4-10,72.2,60.7,50.1,54.6,49.6,42.2,92,68,52,29.95,29.82,13,3,13,0.00
2013-4-11,56.2,56.1,55.9,53.8,53.7,53.3,92,92,91,29.86,29.79,8,2,8,0.00
2013-4-16,65.0,53.7,43.6,53.1,44.3,33.4,79,71,59,30.36,30.10,12,3,12,0.00
2013-4-28,61.0,55.1,52.3,33.3,30.4,27.3,48,39,32,30.23,30.19,10,2,10,0.00
2013-4-29,54.3,52.8,50.4,47.0,44.0,32.6,86,72,47,30.23,30.18,8,1,8,0.00
2013-4-30,70.9,57.4,46.3,45.6,40.8,28.1,79,58,24,30.33,30.20,8,2,8,0.00
2013-5-1,74.4,55.3,38.8,44.4,35.9,29.4,74,51,28,30.48,30.32,11,2,11,0.00
2013-5-2,79.3,59.3,40.9,46.9,39.9,36.1,84,54,23,30.47,30.31,9,2,9,0.00
2013-5-3,58.0,52.8,47.8,42.1,37.9,33.8,66,57,41,30.45,30.38,7,1,7,0.00
2013-5-8,61.3,57.8,51.9,59.5,55.7,50.2,94,93,91,30.03,29.97,5,1,5,0.00
2013-5-9,70.5,57.3,49.9,61.6,54.2,48.1,96,90,68,30.01,29.88,5,0,5,0.00
2013-5-10,80.1,64.9,50.1,63.0,54.0,48.1,95,71,40,30.00,29.90,9,1,9,0.00
2013-5-11,69.2,63.0,59.7,64.7,59.6,54.0,93,89,81,29.90,29.70,12,2,12,0.00
2013-5-12,68.5,59.4,48.1,58.5,42.2,26.8,93,57,28,29.92,29.65,12,3,12,0.00
2013-5-13,48.0,43.2,38.8,33.8,29.5,27.6,72,59,47,30.00,29.91,9,1,9,0.00
2013-5-16,88.9,70.8,52.5,56.6,47.7,41.3,87,47,25,29.84,29.71,10,2,10,0.00
2013-5-17,75.7,63.7,55.5,45.6,41.5,36.6,59,45,32,30.20,29.84,7,1,7,0.00
2013-5-30,77.3,72.7,71.5,64.4,63.1,62.2,75,72,64,30.09,30.07,3,1,3,0.00
2013-5-31,91.4,78.9,64.9,71.7,64.4,60.3,87,63,41,30.13,29.98,10,2,10,0.00
2013-6-1,89.4,78.1,63.3,70.0,65.5,58.4,88,66,47,30.02,29.90,10,2,10,0.00
2013-6-2,86.6,77.8,69.0,69.4,67.0,64.5,89,70,52,29.92,29.77,13,3,13,0.00
2013-6-3,76.2,69.2,63.8,67.5,62.8,49.3,94,81,55,29.90,29.81,6,1,6,0.00
2013-6-4,81.3,64.3,54.1,49.8,44.5,40.2,66,50,30,30.12,29.89,12,2,12,0.00
2013-6-5,76.3,63.3,50.1,51.9,45.5,38.6,73,53,35,30.21,30.11,8,1,8,0.00
2013-6-6,68.1,59.9,51.7,56.5,50.8,45.6,86,72,49,30.15,30.07,10,1,10,0.00
2013-6-12,80.8,68.4,59.7,57.6,53.6,51.6,78,60,44,29.86,29.71,11,2,11,0.00
2013-6-13,60.0,57.8,53.2,57.9,54.9,51.4,95,90,78,29.85,29.50,6,1,6,0.00
2013-6-14,53.4,52.2,51.9,52.0,50.8,50.5,95,95,95,29.61,29.55,4,2,4,0.00